HST
1 20580U 90037B   25001.57030551  .00017492  00000-0  73207-3 0  9993
2 20580  28.4689  91.8396 0002660  62.7061 297.3803 15.22132261707243
ISS (ZARYA)
1 25544U 98067A   25002.23095720  .00034139  00000-0  58981-3 0  9991
2 25544  51.6378  49.1720 0006118  33.9345 326.2034 15.50638329489427
CXO
1 25867U 99040B   25005.48161696  .00000610  00000-0  00000+0 0  9999
2 25867  45.7878 138.5273 8656211 305.8213   0.4036  0.37805792 26483